FW0858 Weather Reports


time (UTC)temp
C
wind
direction
speed
KPH
gust
KPH
rain 1hr
cm
rain 24hr
cm
rain mn
cm
humidity
%
barometer
mb
20260506144903 15 233 19.3 37.0 0.00 0.00 0.00 89 1009.9
20260506144403 15 215 17.7 35.4 0.00 0.00 0.00 90 1010.1
20260506143805 15 221 17.7 35.4 0.00 0.00 0.00 89 1010.2
20260506142806 15 252 16.1 32.2 0.00 0.00 0.00 89 1010.5
20260506142306 15 242 16.1 32.2 0.00 0.00 0.00 89 1010.6
20260506141806 15 250 16.1 30.6 0.00 0.00 0.00 89 1010.6
20260506141303 15 241 17.7 30.6 0.00 0.00 0.00 89 1010.6
20260506140123 15 238 17.7 30.6 0.00 0.00 0.00 90 1010.5
20260506135623 15 250 17.7 29.0 0.00 0.00 0.00 89 1010.6
20260506135057 15 231 17.7 32.2 0.00 0.00 0.00 89 1010.7
20260506134056 15 231 17.7 33.8 0.00 0.00 0.00 89 1010.8
20260506133423 15 243 17.7 33.8 0.00 0.00 0.00 89 1010.8
20260506132852 15 238 19.3 33.8 0.00 0.00 0.00 89 1010.7
20260506132336 15 229 17.7 32.2 0.00 0.00 0.00 89 1010.6
20260506131828 15 236 16.1 32.2 0.00 0.00 0.00 90 1010.7
20260506131308 15 245 16.1 27.4 0.00 0.00 0.00 90 1010.6
20260506130657 14 236 16.1 27.4 0.00 0.00 0.00 90 1010.5
20260506130151 14 214 16.1 27.4 0.00 0.00 0.00 90 1010.5
20260506125649 14 239 17.7 33.8 0.00 0.00 0.00 90 1010.6
20260506125149 14 218 17.7 33.8 0.00 0.00 0.00 89 1010.4
20260506124649 15 268 16.1 33.8 0.00 0.00 0.00 90 1010.5
20260506124149 15 224 16.1 33.8 0.00 0.00 0.00 89 1010.7
20260506123649 15 234 16.1 32.2 0.00 0.00 0.00 89 1010.7
20260506123149 15 227 17.7 35.4 0.00 0.00 0.00 90 1010.7
20260506122650 15 252 17.7 35.4 0.00 0.00 0.00 89 1010.8
20260506122148 15 233 16.1 29.0 0.00 0.00 0.00 90 1010.9
20260506121648 14 244 17.7 30.6 0.00 0.00 0.00 90 1011.0
20260506121149 14 238 17.7 32.2 0.00 0.00 0.00 89 1010.9
20260506120650 15 229 16.1 32.2 0.00 0.00 0.00 89 1011.0
20260506120150 15 221 16.1 30.6 0.00 0.00 0.00 90 1010.9
20260506115648 15 229 17.7 29.0 0.00 0.00 0.00 90 1010.8
20260506114648 14 237 17.7 29.0 0.00 0.00 0.00 90 1010.6
20260506113149 14 241 14.5 25.7 0.00 0.00 0.00 90 1010.6
20260506112650 14 264 12.9 24.1 0.00 0.00 0.00 90 1010.7
20260506111649 14 240 14.5 20.9 0.00 0.00 0.00 90 1010.9
20260506111133 13 247 14.5 27.4 0.00 0.00 0.00 90 1010.9
20260506110633 13 261 14.5 27.4 0.00 0.00 0.00 91 1010.8
20260506110134 13 208 14.5 29.0 0.00 0.00 0.00 91 1010.8
20260506105608 13 225 14.5 29.0 0.00 0.00 0.00 91 1010.7
20260506105044 13 224 16.1 27.4 0.00 0.00 0.00 91 1010.7
20260506104545 13 269 16.1 25.7 0.00 0.00 0.00 91 1010.6
20260506103545 13 196 17.7 33.8 0.00 0.00 0.00 91 1010.6
20260506103046 13 229 17.7 38.6 0.00 0.00 0.00 91 1010.6
20260506102545 13 240 17.7 38.6 0.00 0.00 0.00 91 1010.6
20260506102046 13 203 17.7 32.2 0.00 0.00 0.00 91 1010.5
20260506101538 13 221 19.3 32.2 0.00 0.00 0.00 91 1010.5
20260506101035 13 251 19.3 32.2 0.00 0.00 0.00 91 1010.5
20260506100034 13 232 16.1 27.4 0.00 0.00 0.00 91 1010.5
20260506095534 13 221 16.1 30.6 0.00 0.00 0.00 91 1010.6
20260506095036 13 224 16.1 30.6 0.00 0.00 0.00 91 1010.5
20260506094534 13 228 16.1 32.2 0.00 0.00 0.00 91 1010.6
20260506094032 13 224 17.7 32.2 0.00 0.00 0.00 91 1010.5
20260506093533 13 234 16.1 32.2 0.00 0.00 0.00 91 1010.5
20260506093032 13 231 14.5 32.2 0.00 0.00 0.00 91 1010.4
20260506092533 13 234 14.5 32.2 0.00 0.00 0.00 91 1010.5
20260506091530 13 231 12.9 29.0 0.00 0.00 0.00 91 1010.7
20260506091030 13 216 11.3 25.7 0.00 0.00 0.00 91 1010.7
20260506090531 13 246 12.9 25.7 0.00 0.00 0.00 91 1010.8
20260506090025 13 241 12.9 27.4 0.00 0.00 0.00 91 1010.8
20260506085518 13 231 14.5 27.4 0.00 0.00 0.00 91 1010.7
20260506085012 13 271 16.1 32.2 0.00 0.00 0.00 91 1010.8
20260506084507 13 239 16.1 32.2 0.00 0.00 0.00 91 1010.8
20260506083455 13 234 20.9 37.0 0.00 0.00 0.00 91 1010.7
20260506082948 13 229 20.9 37.0 0.00 0.00 0.00 91 1010.7
20260506082442 13 257 19.3 35.4 0.00 0.00 0.00 91 1010.7
20260506081940 13 212 19.3 35.4 0.00 0.00 0.00 91 1010.9
20260506081441 13 253 17.7 33.8 0.00 0.00 0.00 91 1010.8
20260506080440 13 232 16.1 37.0 0.00 0.00 0.00 90 1011.0
20260506073441 13 231 14.5 30.6 0.00 0.00 0.00 90 1011.3
20260506072940 13 245 17.7 32.2 0.00 0.00 0.00 90 1011.2
20260506072441 13 248 17.7 32.2 0.00 0.00 0.00 90 1011.2
20260506071940 13 216 17.7 30.6 0.00 0.00 0.00 90 1011.3
20260506071439 13 228 17.7 32.2 0.00 0.00 0.00 90 1011.3
20260506070940 13 219 16.1 32.2 0.00 0.00 0.00 90 1011.3
20260506070440 13 229 16.1 30.6 0.00 0.00 0.00 90 1011.3
20260506062352 13 224 16.1 25.7 0.00 0.00 0.00 89 1011.2
20260506061846 13 212 16.1 27.4 0.00 0.00 0.00 89 1011.1
20260506061341 14 252 16.1 30.6 0.00 0.00 0.00 89 1011.1
20260506060328 14 263 17.7 29.0 0.00 0.00 0.00 89 1011.1
20260506051240 14 248 17.7 38.6 0.00 0.00 0.00 89 1011.3
20260506050741 14 245 19.3 32.2 0.00 0.00 0.00 89 1011.3
20260506044739 14 286 19.3 37.0 0.00 0.00 0.00 89 1011.4
20260506044240 14 221 19.3 35.4 0.00 0.00 0.00 89 1011.3
20260506043241 14 229 20.9 33.8 0.00 0.00 0.00 89 1011.3
20260506042741 14 269 20.9 33.8 0.00 0.00 0.00 89 1011.3
20260506042240 14 233 19.3 33.8 0.00 0.00 0.00 89 1011.3
20260506041740 14 231 19.3 33.8 0.00 0.00 0.00 89 1011.3
20260506041239 14 255 20.9 33.8 0.00 0.00 0.00 89 1011.3
20260506040741 14 226 20.9 35.4 0.00 0.00 0.00 89 1011.4
20260506040237 14 237 19.3 35.4 0.00 0.00 0.00 89 1011.5
20260506035738 14 219 16.1 37.0 0.00 0.00 0.00 89 1011.4
20260506035239 14 221 16.1 37.0 0.00 0.00 0.00 89 1011.4
20260506034738 14 243 16.1 29.0 0.00 0.00 0.00 89 1011.4
20260506033739 13 223 16.1 32.2 0.00 0.00 0.00 89 1011.6
20260506033239 14 230 16.1 29.0 0.00 0.00 0.00 89 1011.6
20260506032738 14 252 17.7 30.6 0.00 0.00 0.00 89 1011.5
20260506032237 14 232 16.1 30.6 0.00 0.00 0.00 89 1011.4
20260506031738 14 236 16.1 29.0 0.00 0.00 0.00 89 1011.3
20260506031239 14 252 17.7 33.8 0.00 0.00 0.00 89 1011.5
20260506030733 14 230 17.7 33.8 0.00 0.00 0.00 89 1011.5
20260506030234 14 224 16.1 32.2 0.00 0.00 0.00 89 1011.6
20260506025733 14 242 17.7 32.2 0.00 0.00 0.00 89 1011.6
20260506025233 14 226 17.7 32.2 0.00 0.00 0.00 89 1011.5
20260506024233 14 238 16.1 32.2 0.00 0.00 0.00 89 1011.6
20260506023734 14 230 16.1 33.8 0.00 0.00 0.00 89 1011.6
20260506023233 14 230 17.7 33.8 0.00 0.00 0.00 89 1011.6
20260506022735 14 248 16.1 32.2 0.00 0.00 0.00 89 1011.7
20260506022229 14 219 14.5 27.4 0.00 0.00 0.00 89 1011.6
20260506021730 14 239 16.1 27.4 0.00 0.00 0.00 89 1011.6
20260506021229 14 231 17.7 29.0 0.00 0.00 0.00 89 1011.5
20260506020730 14 224 17.7 37.0 0.00 0.00 0.00 89 1011.6
20260506015730 14 214 17.7 32.2 0.00 0.00 0.00 89 1011.4
20260506015229 15 222 17.7 33.8 0.00 0.00 0.00 89 1011.4
20260506014730 15 219 19.3 33.8 0.00 0.00 0.00 89 1011.3
20260506014230 14 201 19.3 30.6 0.00 0.00 0.00 88 1011.2
20260506013729 14 233 19.3 37.0 0.00 0.00 0.00 88 1011.3
20260506012718 14 239 20.9 41.8 0.00 0.00 0.00 88 1011.0
20260506012216 14 231 20.9 41.8 0.00 0.00 0.00 88 1011.1
20260506011215 15 219 22.5 40.2 0.00 0.00 0.00 88 1011.0
20260506010213 15 247 25.7 41.8 0.00 0.00 0.00 87 1010.7
20260506005710 15 224 25.7 41.8 0.00 0.00 0.00 87 1010.9
20260506005209 15 264 24.1 37.0 0.00 0.00 0.00 87 1010.7
20260506004709 15 246 24.1 43.5 0.00 0.00 0.00 87 1010.7
20260506004207 15 229 25.7 43.5 0.00 0.00 0.00 87 1010.7
20260506003708 15 229 25.7 41.8 0.00 0.00 0.00 87 1010.5
20260506002707 15 212 24.1 38.6 0.00 0.00 0.00 87 1010.4
20260506002207 15 220 25.7 41.8 0.00 0.00 0.00 87 1010.4
20260506001709 15 248 25.7 41.8 0.00 0.00 0.00 87 1010.3
20260506001207 15 226 25.7 41.8 0.00 0.00 0.00 87 1010.3
20260506000702 15 226 25.7 43.5 0.00 0.00 0.00 87 1010.3
20260506000156 15 231 24.1 43.5 0.00 0.00 0.00 87 1010.1
20260505235650 15 227 24.1 41.8 0.00 0.00 0.00 87 1010.2
20260505235144 15 236 25.7 40.2 0.00 0.00 0.00 87 1010.1
20260505234638 15 227 27.4 46.7 0.00 0.00 0.00 87 1009.9
20260505234131 15 253 29.0 46.7 0.00 0.00 0.00 87 1009.7
20260505233626 15 245 29.0 46.7 0.00 0.00 0.00 87 1009.6
20260505232614 15 256 27.4 43.5 0.00 0.00 0.00 87 1009.5
20260505232107 15 219 25.7 43.5 0.00 0.00 0.00 86 1009.6
20260505230548 15 231 25.7 45.1 0.00 0.00 0.00 86 1009.4
20260505230041 15 236 25.7 45.1 0.00 0.00 0.00 86 1009.4
20260505225535 15 238 24.1 43.5 0.00 0.00 0.00 86 1009.3
20260505224524 15 239 25.7 43.5 0.00 0.00 0.00 86 1009.2
20260505224018 16 232 25.7 43.5 0.00 0.00 0.00 85 1009.1
20260505223512 16 232 27.4 48.3 0.00 0.00 0.00 85 1009.1
20260505222500 16 200 25.7 45.1 0.00 0.00 0.00 85 1009.1
20260505221954 16 238 25.7 45.1 0.00 0.00 0.00 84 1009.1
20260505221448 16 221 27.4 46.7 0.00 0.00 0.00 84 1008.9
20260505220942 16 215 27.4 46.7 0.00 0.00 0.00 84 1008.9
20260505220435 16 236 25.7 45.1 0.00 0.00 0.00 84 1008.9
20260505215930 16 224 27.4 45.1 0.00 0.00 0.00 85 1009.0
20260505215424 16 226 29.0 46.7 0.00 0.00 0.00 85 1009.1
20260505214917 15 236 30.6 54.7 0.00 0.00 0.00 85 1008.9
20260505213906 16 223 30.6 49.9 0.00 0.00 0.00 85 1008.8
20260505213400 16 238 29.0 45.1 0.00 0.00 0.00 84 1008.7
20260505212853 16 250 29.0 48.3 0.00 0.00 0.00 84 1008.7
20260505212347 16 262 32.2 54.7 0.00 0.00 0.00 84 1008.6
20260505211841 16 210 32.2 54.7 0.00 0.00 0.00 84 1008.6
20260505211336 16 228 29.0 48.3 0.00 0.00 0.00 84 1008.6
20260505210830 16 223 29.0 43.5 0.00 0.00 0.00 84 1008.5
20260505210325 16 243 29.0 43.5 0.00 0.00 0.00 84 1008.5
20260505205817 16 224 30.6 51.5 0.00 0.00 0.00 84 1008.4
20260505205318 16 239 30.6 51.5 0.00 0.00 0.00 83 1008.5
20260505204818 16 242 30.6 49.9 0.00 0.00 0.00 83 1008.5
20260505204320 16 221 29.0 49.9 0.00 0.00 0.00 83 1008.4
20260505203734 16 230 27.4 48.3 0.00 0.00 0.00 83 1008.4
20260505203234 16 222 25.7 48.3 0.00 0.00 0.00 83 1008.5
20260505202234 16 229 25.7 43.5 0.00 0.00 0.00 83 1008.5
20260505201734 16 228 24.1 43.5 0.00 0.00 0.00 83 1008.6
20260505201234 16 226 22.5 40.2 0.00 0.00 0.00 84 1008.7
20260505200734 16 239 22.5 40.2 0.00 0.00 0.00 84 1008.7
20260505200233 16 210 20.9 40.2 0.00 0.00 0.00 84 1008.9
20260505195733 16 226 19.3 32.2 0.00 0.00 0.00 84 1009.1
20260505195229 16 241 20.9 35.4 0.00 0.00 0.00 85 1009.0
20260505194729 16 222 20.9 35.4 0.00 0.00 0.00 84 1009.1
20260505194228 16 230 17.7 35.4 0.00 0.00 0.00 84 1009.3
20260505193702 16 203 16.1 33.8 0.00 0.00 0.00 84 1009.4
20260505192200 17 205 14.5 25.7 0.00 0.00 0.00 84 1009.6
20260505191702 17 200 16.1 27.4 0.00 0.00 0.00 84 1009.7
20260505191202 16 215 16.1 33.8 0.00 0.00 0.00 84 1009.8
20260505190700 16 214 12.9 33.8 0.00 0.00 0.00 84 1009.9
20260505190201 16 224 11.3 22.5 0.00 0.00 0.00 86 1010.0
20260505185702 16 257 12.9 24.1 0.00 0.00 0.00 85 1010.2
20260505185201 16 243 11.3 24.1 0.00 0.00 0.00 85 1010.3
20260505183200 16 236 17.7 29.0 0.00 0.00 0.00 85 1010.6
20260505182201 16 224 19.3 30.6 0.00 0.00 0.00 85 1010.6
20260505181701 16 217 19.3 29.0 0.00 0.00 0.00 85 1010.5
20260505180701 16 226 17.7 29.0 0.00 0.00 0.00 85 1010.6
20260505180202 16 233 16.1 29.0 0.00 0.00 0.00 85 1010.6
20260505175701 16 226 14.5 27.4 0.00 0.00 0.00 86 1010.8
20260505175158 16 217 12.9 24.1 0.00 0.00 0.00 86 1010.8
20260505174658 16 233 12.9 24.1 0.00 0.00 0.00 86 1010.8
20260505174156 16 210 12.9 24.1 0.00 0.00 0.00 87 1010.8
20260505173657 16 274 12.9 24.1 0.00 0.00 0.00 86 1010.8
20260505173157 16 218 11.3 22.5 0.00 0.00 0.00 87 1010.9
20260505172658 15 264 12.9 25.7 0.00 0.00 0.00 87 1010.9
20260505172156 15 228 12.9 25.7 0.00 0.00 0.00 87 1010.9
20260505171658 15 286 14.5 24.1 0.00 0.00 0.00 87 1011.0
20260505170654 16 232 12.9 22.5 0.00 0.00 0.00 86 1011.0
20260505165655 16 231 11.3 20.9 0.00 0.00 0.00 86 1011.1
20260505164655 16 223 12.9 22.5 0.00 0.00 0.00 86 1011.1
20260505163654 16 220 12.9 25.7 0.00 0.00 0.00 86 1011.3